Dati storici da Weather Underground
 
Giornaliero Sommario per Febbraio 27, 2020 Unitá:  Metrico    Inglese   Fra
Giornaliero Settimanale Mensile Annuale
  Corrente: Massimo: Minimo: Medio:
Temperatura: 5 °C 9 °C 4 °C 6.7 °C
Punto di rugiada: 1 °C 3 °C -3 °C 0 °C
Umiditá: 74% 78% 45% 63%
Velocitá vento: 10km/h 27km/h 0km/h 9.9km/h
Raffica vento: 18km/h 43km/h - -
VentoNW - - NW
Pressione: 1012.87 hPa 1012.87 hPa 1005.76 hPa -
Precipitazioni: 0 mm      
Historical Graphs
 
 
Dati tabulati per Febbraio 27, 2020
Ora Temperatura Punto di rugiada Pressione Vento Velocitá vento Raffica vento Umiditá Intensitá di pioggia (per ora) Rad. Solare
00:00 8 °C 3 °C 1005.76 hPa W 2 km/h 8 km/h 69% 0 mm 0 W/m2
00:05 9 °C 3 °C 1005.76 hPa NNW 6 km/h 8 km/h 69% 0 mm 0 W/m2
00:10 8 °C 3 °C 1005.76 hPa WSW 3 km/h 11 km/h 68% 0 mm 0 W/m2
00:15 9 °C 3 °C 1006.1 hPa WSW 2 km/h 11 km/h 66% 0 mm 0 W/m2
00:20 9 °C 2 °C 1006.1 hPa WNW 11 km/h 18 km/h 65% 0 mm 0 W/m2
00:25 9 °C 2 °C 1006.1 hPa WSW 2 km/h 10 km/h 64% 0 mm 0 W/m2
00:30 8 °C 2 °C 1006.1 hPa NNW 2 km/h 13 km/h 64% 0 mm 0 W/m2
00:35 8 °C 2 °C 1006.1 hPa WNW 3 km/h 14 km/h 64% 0 mm 0 W/m2
00:40 8 °C 2 °C 1006.1 hPa WNW 8 km/h 14 km/h 64% 0 mm 0 W/m2
00:45 8 °C 2 °C 1006.1 hPa NW 18 km/h 19 km/h 64% 0 mm 0 W/m2
00:50 8 °C 2 °C 1006.43 hPa NW 6 km/h 14 km/h 64% 0 mm 0 W/m2
00:55 8 °C 2 °C 1006.43 hPa Calm   13 km/h 64% 0 mm 0 W/m2
01:00 8 °C 2 °C 1006.43 hPa NW 3 km/h 16 km/h 64% 0 mm 0 W/m2
01:05 8 °C 2 °C 1006.43 hPa W 3 km/h 19 km/h 64% 0 mm 0 W/m2
01:10 8 °C 1 °C 1006.43 hPa WNW 6 km/h 19 km/h 63% 0 mm 0 W/m2
01:15 8 °C 1 °C 1006.77 hPa NNW 5 km/h 18 km/h 63% 0 mm 0 W/m2
01:20 8 °C 1 °C 1006.77 hPa SW 5 km/h 19 km/h 63% 0 mm 0 W/m2
01:25 8 °C 1 °C 1006.77 hPa NW 2 km/h 19 km/h 63% 0 mm 0 W/m2
01:30 8 °C 1 °C 1006.77 hPa NNW 14 km/h 18 km/h 62% 0 mm 0 W/m2
01:35 8 °C 1 °C 1006.77 hPa NW 6 km/h 16 km/h 62% 0 mm 0 W/m2
01:40 8 °C 1 °C 1007.11 hPa NW 10 km/h 21 km/h 62% 0 mm 0 W/m2
01:45 8 °C 1 °C 1006.77 hPa WNW 3 km/h 18 km/h 61% 0 mm 0 W/m2
01:50 8 °C 0 °C 1007.11 hPa NNW 14 km/h 29 km/h 58% 0 mm 0 W/m2
01:55 8 °C 0 °C 1007.11 hPa NW 26 km/h 29 km/h 57% 0 mm 0 W/m2
02:00 8 °C 0 °C 1007.11 hPa WNW 19 km/h 39 km/h 54% 0 mm 0 W/m2
02:05 9 °C -1 °C 1007.11 hPa WNW 21 km/h 35 km/h 51% 0 mm 0 W/m2
02:10 9 °C -1 °C 1007.11 hPa NNW 16 km/h 35 km/h 50% 0 mm 0 W/m2
02:15 9 °C -2 °C 1007.11 hPa W 13 km/h 37 km/h 49% 0 mm 0 W/m2
02:20 9 °C -2 °C 1007.11 hPa W 11 km/h 34 km/h 48% 0 mm 0 W/m2
02:25 9 °C -2 °C 1007.11 hPa NNW 27 km/h 31 km/h 48% 0 mm 0 W/m2
02:30 9 °C -2 °C 1007.11 hPa NW 19 km/h 43 km/h 47% 0 mm 0 W/m2
02:35 9 °C -2 °C 1007.45 hPa NW 21 km/h 35 km/h 47% 0 mm 0 W/m2
02:40 9 °C -2 °C 1007.45 hPa NW 21 km/h 31 km/h 46% 0 mm 0 W/m2
02:45 9 °C -3 °C 1007.45 hPa NW 19 km/h 39 km/h 45% 0 mm 0 W/m2
02:50 9 °C -3 °C 1007.45 hPa WNW 13 km/h 35 km/h 45% 0 mm 0 W/m2
02:55 9 °C -3 °C 1007.79 hPa W 19 km/h 35 km/h 45% 0 mm 0 W/m2
03:00 9 °C -3 °C 1007.79 hPa NW 21 km/h 37 km/h 45% 0 mm 0 W/m2
03:05 9 °C -3 °C 1007.79 hPa NW 18 km/h 35 km/h 45% 0 mm 0 W/m2
03:10 8 °C -3 °C 1008.13 hPa NW 14 km/h 26 km/h 45% 0 mm 0 W/m2
03:15 8 °C -2 °C 1008.13 hPa NNW 13 km/h 27 km/h 49% 0 mm 0 W/m2
03:20 8 °C -2 °C 1008.13 hPa NW 14 km/h 27 km/h 51% 0 mm 0 W/m2
03:25 8 °C -2 °C 1008.47 hPa NNW 16 km/h 27 km/h 52% 0 mm 0 W/m2
03:30 8 °C -2 °C 1008.47 hPa NW 19 km/h 26 km/h 52% 0 mm 0 W/m2
03:35 8 °C -2 °C 1008.47 hPa WNW 13 km/h 21 km/h 53% 0 mm 0 W/m2
03:40 7 °C -1 °C 1008.81 hPa NNW 18 km/h 23 km/h 54% 0 mm 0 W/m2
03:45 7 °C -1 °C 1008.81 hPa NNW 13 km/h 26 km/h 54% 0 mm 0 W/m2
03:50 7 °C -1 °C 1008.81 hPa W 11 km/h 21 km/h 55% 0 mm 0 W/m2
03:55 7 °C -1 °C 1009.14 hPa NW 14 km/h 24 km/h 56% 0 mm 0 W/m2
04:00 7 °C -1 °C 1009.14 hPa NW 14 km/h 19 km/h 56% 0 mm 0 W/m2
04:05 7 °C -1 °C 1009.14 hPa NW 5 km/h 14 km/h 57% 0 mm 0 W/m2
04:10 7 °C -1 °C 1009.48 hPa NW 6 km/h 11 km/h 58% 0 mm 0 W/m2
04:15 6 °C -1 °C 1009.48 hPa NW 10 km/h 16 km/h 60% 0 mm 0 W/m2
04:20 6 °C -1 °C 1009.48 hPa NW 6 km/h 19 km/h 61% 0 mm 0 W/m2
04:25 6 °C 0 °C 1009.48 hPa NNW 10 km/h 16 km/h 62% 0 mm 0 W/m2
04:30 6 °C 0 °C 1009.48 hPa NW 3 km/h 18 km/h 63% 0 mm 0 W/m2
04:35 6 °C -1 °C 1009.48 hPa WNW 8 km/h 19 km/h 63% 0 mm 0 W/m2
04:40 6 °C 0 °C 1009.82 hPa NW 8 km/h 18 km/h 64% 0 mm 0 W/m2
04:45 6 °C 0 °C 1009.82 hPa NW 5 km/h 16 km/h 65% 0 mm 0 W/m2
04:50 6 °C 0 °C 1009.82 hPa NW 6 km/h 14 km/h 65% 0 mm 0 W/m2
04:55 6 °C 0 °C 1009.82 hPa NW 8 km/h 11 km/h 65% 0 mm 0 W/m2
05:00 6 °C 0 °C 1010.16 hPa NW 13 km/h 16 km/h 66% 0 mm 0 W/m2
05:05 6 °C 0 °C 1010.16 hPa NW 11 km/h 18 km/h 66% 0 mm 0 W/m2
05:10 6 °C 0 °C 1010.16 hPa WNW 11 km/h 18 km/h 66% 0 mm 0 W/m2
05:15 6 °C 0 °C 1010.16 hPa WNW 18 km/h 18 km/h 66% 0 mm 0 W/m2
05:20 6 °C 0 °C 1010.16 hPa NW 10 km/h 19 km/h 65% 0 mm 0 W/m2
05:25 6 °C 0 °C 1010.16 hPa NW 13 km/h 19 km/h 66% 0 mm 0 W/m2
05:30 6 °C 0 °C 1010.5 hPa N 16 km/h 19 km/h 66% 0 mm 0 W/m2
05:35 6 °C 0 °C 1010.5 hPa NW 8 km/h 18 km/h 67% 0 mm 0 W/m2
05:40 5 °C 0 °C 1010.5 hPa NNW 10 km/h 16 km/h 68% 0 mm 0 W/m2
05:45 5 °C 0 °C 1010.84 hPa WNW 3 km/h 14 km/h 69% 0 mm 0 W/m2
05:50 5 °C 0 °C 1010.84 hPa WNW 5 km/h 13 km/h 70% 0 mm 0 W/m2
05:55 5 °C 0 °C 1010.84 hPa NW 5 km/h 8 km/h 70% 0 mm 0 W/m2
06:00 5 °C 0 °C 1011.18 hPa WNW 2 km/h 13 km/h 71% 0 mm 0 W/m2
06:05 5 °C 0 °C 1011.18 hPa NW 6 km/h 10 km/h 72% 0 mm 0 W/m2
06:10 5 °C 0 °C 1011.18 hPa NW 6 km/h 13 km/h 73% 0 mm 0 W/m2
06:15 5 °C 0 °C 1011.18 hPa NNW 10 km/h 10 km/h 73% 0 mm 0 W/m2
06:20 5 °C 0 °C 1011.51 hPa NW 6 km/h 14 km/h 74% 0 mm 0 W/m2
06:25 4 °C 0 °C 1011.51 hPa NW 5 km/h 13 km/h 75% 0 mm 0 W/m2
06:30 4 °C 1 °C 1011.51 hPa NW 13 km/h 14 km/h 76% 0 mm 0 W/m2
06:35 4 °C 1 °C 1011.51 hPa WNW 2 km/h 18 km/h 76% 0 mm 0 W/m2
06:40 4 °C 1 °C 1011.51 hPa NNW 6 km/h 14 km/h 77% 0 mm 0 W/m2
06:45 4 °C 1 °C 1011.51 hPa NW 5 km/h 18 km/h 77% 0 mm 0 W/m2
06:50 4 °C 1 °C 1011.51 hPa NW 10 km/h 14 km/h 77% 0 mm 5 W/m2
06:55 4 °C 1 °C 1011.51 hPa NNW 8 km/h 16 km/h 77% 0 mm 7 W/m2
07:00 4 °C 0 °C 1011.51 hPa NW 8 km/h 18 km/h 77% 0 mm 11 W/m2
07:05 4 °C 1 °C 1011.51 hPa NNW 10 km/h 18 km/h 78% 0 mm 12 W/m2
07:10 4 °C 1 °C 1011.85 hPa NNW 8 km/h 18 km/h 78% 0 mm 16 W/m2
07:15 4 °C 0 °C 1011.85 hPa NW 10 km/h 14 km/h 77% 0 mm 19 W/m2
07:20 4 °C 1 °C 1011.85 hPa NNW 13 km/h 16 km/h 77% 0 mm 26 W/m2
07:25 4 °C 1 °C 1011.85 hPa NNW 6 km/h 18 km/h 77% 0 mm 35 W/m2
07:30 4 °C 1 °C 1012.19 hPa NW 5 km/h 16 km/h 77% 0 mm 42 W/m2
07:35 5 °C 1 °C 1012.19 hPa WNW 3 km/h 13 km/h 76% 0 mm 49 W/m2
07:40 5 °C 1 °C 1012.53 hPa NW 5 km/h 13 km/h 76% 0 mm 70 W/m2
07:45 5 °C 1 °C 1012.53 hPa NW 6 km/h 13 km/h 75% 0 mm 84 W/m2
07:50 5 °C 1 °C 1012.87 hPa NNW 13 km/h 16 km/h 74% 0 mm 107 W/m2
07:55 5 °C 1 °C 1012.87 hPa NW 10 km/h 18 km/h 74% 0 mm 125 W/m2
Meteo Juneau County
Complimenti Weather Underground - 2 mb